1506344400.3,30165,16.56,74272.5,1.61,-1.39,-1.29,0,*7B
1506344401.49,30166,16.56,74274.8,1.61,-1.59,-1.55,0,*75
1506344402.67,30167,16.56,74274.5,1.61,-1.59,-1.55,0,*74
1506344403.86,30168,16.56,74274.5,1.61,-1.55,-1.55,0,*77
1506344405.04,30169,16.56,74272.5,1.61,-1.59,-1.55,0,*7A
1506344406.23,30170,16.56,74274.3,1.61,-1.55,-1.55,0,*7E
1506344407.45,30171,16.56,74272.8,1.61,-1.39,-1.33,0,*75
1506344408.64,30172,16.56,74270.0,1.61,-1.29,-1.21,0,*74
1506344409.84,30173,16.56,74274.8,1.61,-1.29,-1.21,0,*75
1506344411.05,30174,16.56,74272.3,1.65,-1.39,-1.29,0,*7F
1506344412.3,30175,16.56,74274.0,1.61,-1.43,-1.39,0,*76
1506344413.51,30176,16.56,74274.5,1.61,-1.43,-1.33,0,*7F
1506344414.71,30177,16.56,74272.5,1.61,-1.33,-1.33,0,*79
1506344415.94,30178,16.56,74276.0,1.59,-1.35,-1.33,0,*7B
1506344417.18,30179,16.56,74272.3,1.59,-1.35,-1.33,0,*7A
1506344418.39,30180,16.56,74274.3,1.59,-1.59,-1.59,0,*7A
1506344419.63,30181,16.56,74272.5,1.59,-1.63,-1.43,0,*79
1506344420.88,30182,16.56,74272.0,1.59,-1.55,-1.43,0,*7F
1506344422.15,30183,16.56,74270.5,1.59,-1.47,-1.43,0,*7D
1506344423.42,30184,16.56,74272.8,1.59,-1.47,-1.35,0,*7B
1506344424.66,30185,16.56,74272.8,1.59,-1.43,-1.33,0,*78
1506344425.9,30186,16.56,74272.0,1.59,-1.55,-1.43,0,*7B
1506344427.14,30187,16.56,74274.0,1.59,-1.59,-1.47,0,*72
1506344428.41,30188,16.56,74272.3,1.59,-1.47,-1.35,0,*77
1506344429.6,30189,16.56,74274.3,1.57,-1.25,-1.21,0,*79
1506344430.8,30190,16.56,74274.8,1.57,-1.33,-1.21,0,*76
1506344432.04,30191,16.56,74274.3,1.59,-1.33,-1.13,0,*78
1506344433.28,30192,16.56,74272.0,1.59,-1.43,-1.33,0,*7E
1506344434.49,30193,16.56,74270.5,1.57,-1.55,-1.47,0,*75
1506344435.68,30194,16.63,74276.8,1.57,-1.63,-1.63,0,*71
1506344436.89,30195,16.56,74272.0,1.57,-1.63,-1.47,0,*76
1506344438.16,30196,16.56,74274.8,1.59,-1.47,-1.43,0,*79
1506344439.37,30197,16.56,74272.8,1.57,-1.63,-1.47,0,*74
1506344440.61,30198,16.56,74274.3,1.57,-1.35,-1.35,0,*7D
1506344441.82,30199,16.56,74274.5,1.57,-1.47,-1.33,0,*7F
1506344443.07,30200,16.56,74274.8,1.55,-1.39,-1.25,0,*70
1506344444.34,30201,16.56,74272.3,1.55,-1.39,-1.35,0,*70
1506344445.59,30202,16.56,74270.3,1.55,-1.39,-1.29,0,*7E
1506344446.83,30203,16.56,74274.3,1.59,-1.43,-1.33,0,*75
1506344448.04,30204,16.56,74274.0,1.57,-1.43,-1.33,0,*7C
1506344449.23,30205,16.56,74272.0,1.57,-1.55,-1.33,0,*7A
1506344450.47,30206,16.56,74272.3,1.57,-1.47,-1.35,0,*7C
1506344451.68,30207,16.56,74270.5,1.57,-1.47,-1.33,0,*7B
1506344452.89,30208,16.56,74268.8,1.57,-1.59,-1.47,0,*78
1506344454.1,30209,16.56,74274.3,1.57,-1.55,-1.47,0,*75
1506344455.35,30210,16.56,74272.5,1.55,-1.39,-1.29,0,*7D
1506344456.6,30211,16.56,74274.5,1.55,-1.25,-1.05,0,*7F
1506344457.82,30212,16.56,74270.8,1.55,-1.29,-1.17,0,*73
1506344459.06,30213,16.56,74270.0,1.55,-1.35,-1.17,0,*7F
1506344460.25,30214,16.56,74272.0,1.53,-1.29,-1.25,0,*72
1506344461.49,30215,16.56,74274.0,1.55,-1.29,-1.13,0,*70
1506344462.68,30216,16.56,74274.0,1.57,-1.33,-1.25,0,*7F
1506344463.94,30217,16.56,74274.8,1.55,-1.13,-1.01,0,*78
1506344465.21,30218,16.56,74274.5,1.55,-1.13,-1.01,0,*77
1506344466.48,30219,16.56,74270.3,1.55,-1.05,-0.93,0,*4B
1506344467.71,30220,16.56,74274.3,1.55,-1.25,-1.13,0,*7A
1506344468.95,30221,16.56,74272.5,1.55,-1.25,-1.13,0,*7B
1506344470.17,30222,16.56,74272.5,1.53,-1.25,-1.05,0,*79
1506344471.41,30223,16.56,74272.3,1.55,-1.25,-1.05,0,*7E
1506344472.66,30224,16.63,74274.0,1.55,-1.17,-1.05,0,*78
1506344473.91,30225,16.56,74268.0,1.55,-1.17,-1.13,0,*7E
1506344475.12,30226,16.56,74274.0,1.55,-1.25,-1.17,0,*78
1506344476.37,30227,16.56,74272.8,1.55,-1.17,-1.05,0,*7B
1506344477.64,30228,16.56,74272.8,1.55,-1.05,-0.93,0,*49
1506344478.9,30229,16.56,74274.3,1.55,-1.01,-0.89,0,*47
1506344480.16,30230,16.56,74272.5,1.55,-1.01,-0.89,0,*4F
1506344481.42,30231,16.56,74268.3,1.55,-1.01,-0.89,0,*4E
1506344482.69,30232,16.56,74270.8,1.55,-1.01,-1.01,0,*7C
1506344483.92,30233,16.56,74270.8,1.57,-1.13,-0.97,0,*42
1506344485.15,30234,16.56,74270.3,1.57,-1.01,-0.97,0,*46
1506344486.39,30235,16.56,74274.8,1.57,-1.09,-1.01,0,*71
1506344487.6,30236,16.56,74272.8,1.57,-1.33,-1.09,0,*73
1506344488.81,30237,16.56,74274.5,1.57,-1.35,-1.21,0,*7E
1506344490.05,30238,16.56,74274.3,1.57,-1.35,-1.13,0,*70
1506344491.24,30239,16.56,74272.8,1.57,-1.33,-1.21,0,*76
1506344492.51,30240,16.56,74274.8,1.55,-1.35,-1.35,0,*79
1506344493.75,30241,16.56,74272.8,1.55,-1.51,-1.39,0,*76
1506344495.02,30242,16.56,74274.5,1.55,-1.47,-1.47,0,*7B
1506344496.23,30243,16.56,74274.3,1.53,-1.51,-1.39,0,*72
1506344497.51,30244,16.56,74272.5,1.55,-1.39,-1.35,0,*71
1506344498.76,30245,16.56,74272.0,1.55,-1.39,-1.29,0,*7D
1506344500.0,30246,16.56,74272.0,1.55,-1.35,-1.25,0,*7E
1506344501.27,30247,16.56,74274.0,1.55,-1.35,-1.35,0,*7E
1506344502.49,30248,16.56,74272.3,1.55,-1.29,-1.29,0,*71
1506344503.67,30249,16.56,74272.3,1.57,-1.25,-1.25,0,*72
1506344504.89,30250,16.56,74276.3,1.55,-1.25,-1.17,0,*79
1506344506.11,30251,16.56,74274.0,1.55,-1.17,-1.17,0,*79
1506344507.34,30252,16.56,74274.3,1.55,-1.17,-1.17,0,*7A
1506344508.58,30253,16.56,74274.5,1.55,-1.35,-1.25,0,*7A
1506344509.79,30254,16.56,74272.0,1.55,-1.25,-1.25,0,*7C
1506344511.01,30255,16.56,74272.3,1.55,-1.17,-1.17,0,*7D
1506344512.26,30256,16.56,74274.3,1.55,-1.17,-1.13,0,*7A
1506344513.51,30257,16.56,74274.5,1.55,-1.29,-1.35,0,*72
1506344514.78,30258,16.56,74276.3,1.55,-1.39,-1.35,0,*7C
1506344516.0,30259,16.56,74276.3,1.55,-1.63,-1.63,0,*71
1506344517.19,30260,16.56,74272.3,1.53,-1.79,-1.75,0,*71
1506344518.41,30261,16.56,74272.8,1.53,-1.87,-1.79,0,*7D
1506344519.62,30262,16.56,74274.5,1.53,-1.51,-1.47,0,*78
1506344520.84,30263,16.56,74276.3,1.53,-1.63,-1.47,0,*78
1506344522.03,30264,16.56,74274.0,1.53,-1.67,-1.63,0,*7D
1506344523.27,30265,16.56,74272.5,1.53,-1.47,-1.39,0,*71
1506344524.46,30266,16.56,74274.5,1.53,-1.29,-1.25,0,*77
1506344525.66,30267,16.56,74272.8,1.53,-1.29,-1.17,0,*77
1506344526.85,30268,16.56,74274.8,1.53,-1.25,-1.17,0,*74
1506344528.06,30269,16.56,74274.3,1.53,-1.35,-1.17,0,*74
1506344529.28,30270,16.56,74272.3,1.53,-1.35,-1.25,0,*7D
1506344530.49,30271,16.56,74278.0,1.53,-1.35,-1.17,0,*7D
1506344531.7,30272,16.56,74274.0,1.53,-1.35,-1.25,0,*7F
1506344532.92,30273,16.56,74276.8,1.53,-1.35,-1.17,0,*7F
1506344534.11,30274,16.56,74272.3,1.53,-1.29,-1.17,0,*75
1506344535.36,30275,16.56,74278.0,1.53,-1.39,-1.35,0,*75
1506344536.57,30276,16.56,74274.0,1.53,-1.51,-1.35,0,*78
1506344537.76,30277,16.56,74274.5,1.53,-1.59,-1.51,0,*73
1506344539.01,30278,16.56,74278.5,1.53,-1.47,-1.39,0,*7D
1506344540.23,30279,16.56,74272.5,1.53,-1.39,-1.29,0,*74
1506344541.5,30280,16.56,74276.5,1.51,-1.43,-1.39,0,*7C
1506344542.77,30281,16.56,74274.5,1.51,-1.43,-1.43,0,*70
1506344543.98,30282,16.56,74276.5,1.53,-1.35,-1.17,0,*71
1506344545.21,30283,16.56,74274.0,1.53,-1.39,-1.29,0,*71
1506344546.43,30284,16.56,74272.0,1.53,-1.39,-1.29,0,*76
1506344547.7,30285,16.56,74276.0,1.51,-1.43,-1.39,0,*79
1506344548.95,30286,16.56,74274.8,1.51,-1.39,-1.17,0,*7B
1506344550.19,30287,16.56,74272.0,1.51,-1.43,-1.25,0,*76
1506344551.43,30288,16.56,74276.5,1.55,-1.35,-1.17,0,*7D
1506344552.64,30289,16.56,74276.0,1.53,-1.35,-1.25,0,*7B
1506344553.86,30290,16.56,74278.0,1.53,-1.39,-1.25,0,*7F
1506344555.05,30291,16.56,74274.3,1.53,-1.25,-1.17,0,*72
1506344556.26,30292,16.56,74276.3,1.53,-1.25,-0.93,0,*4C
1506344557.5,30293,16.56,74276.5,1.55,-1.25,-1.05,0,*75
1506344558.72,30294,16.56,74272.8,1.53,-1.35,-1.17,0,*76
1506344559.96,30295,16.56,74276.5,1.55,-1.63,-1.47,0,*77
1506344561.23,30296,16.56,74276.5,1.55,-1.47,-1.39,0,*7B
1506344562.5,30297,16.56,74274.8,1.55,-1.47,-1.35,0,*76
1506344563.78,30298,16.56,74276.5,1.55,-1.47,-1.39,0,*75
1506344565.02,30299,16.56,74272.8,1.53,-1.39,-1.35,0,*77
1506344566.3,30300,16.56,74274.3,1.55,-1.39,-1.35,0,*70
1506344567.51,30301,16.56,74278.8,1.53,-1.59,-1.39,0,*7D
1506344568.7,30302,16.56,74272.0,1.53,-1.63,-1.51,0,*79
1506344569.89,30303,16.56,74272.5,1.53,-1.59,-1.51,0,*71
1506344571.13,30304,16.56,74274.8,1.55,-1.51,-1.39,0,*76
1506344572.37,30305,16.56,74274.0,1.53,-1.47,-1.35,0,*7A
1506344573.65,30306,16.56,74278.0,1.55,-1.39,-1.35,0,*76
1506344574.92,30307,16.56,74272.5,1.55,-1.47,-1.35,0,*7E
1506344576.2,30308,16.56,74276.3,1.55,-1.39,-1.35,0,*78
1506344577.43,30309,16.56,74274.0,1.55,-1.35,-1.25,0,*74
1506344578.67,30310,16.56,74272.8,1.55,-1.35,-1.25,0,*7C
1506344579.89,30311,16.56,74272.3,1.53,-1.39,-1.25,0,*77
1506344581.11,30312,16.56,74278.0,1.53,-1.35,-1.17,0,*79
1506344582.33,30313,16.56,74272.3,1.55,-1.29,-1.17,0,*73
1506344583.58,30314,16.56,74278.3,1.55,-1.39,-1.29,0,*78
1506344584.77,30315,16.56,74278.0,1.53,-1.29,-1.17,0,*73
1506344586.04,30316,16.56,74276.5,1.55,-1.47,-1.35,0,*7E
1506344587.31,30317,16.56,74276.3,1.55,-1.47,-1.35,0,*7F
1506344588.59,30318,16.56,74276.3,1.55,-1.47,-1.39,0,*7C
1506344589.86,30319,16.56,74278.0,1.55,-1.47,-1.39,0,*7D
1506344591.07,30320,16.56,74274.3,1.53,-1.51,-1.39,0,*76
1506344592.35,30321,16.56,74276.5,1.55,-1.47,-1.39,0,*76
1506344593.62,30322,16.56,74272.8,1.55,-1.39,-1.35,0,*70
1506344594.9,30323,16.56,74274.5,1.55,-1.39,-1.35,0,*71
1506344596.14,30324,16.56,74274.0,1.55,-1.59,-1.47,0,*75
1506344597.33,30325,16.56,74276.5,1.53,-1.63,-1.63,0,*7D
1506344598.54,30326,16.56,74272.0,1.55,-1.63,-1.51,0,*79
1506344599.76,30327,16.56,74272.0,1.53,-1.51,-1.39,0,*71
1506344601.03,30328,16.56,74274.0,1.55,-1.39,-1.35,0,*7A
1506344602.25,30329,16.56,74272.8,1.55,-1.25,-1.17,0,*76
1506344603.44,30330,16.56,74276.5,1.53,-1.29,-1.29,0,*79
1506344604.63,30331,16.56,74274.5,1.53,-1.25,-1.25,0,*78
1506344605.9,30332,16.56,74278.0,1.55,-1.35,-1.35,0,*7D
1506344607.15,30333,16.56,74272.0,1.55,-1.39,-1.29,0,*7D
1506344608.36,30334,16.56,74272.5,1.55,-1.25,-1.17,0,*7A
1506344609.59,30335,16.56,74274.3,1.53,-1.17,-1.05,0,*7F
1506344610.83,30336,16.56,74274.8,1.55,-1.25,-1.13,0,*7C
1506344612.07,30337,16.56,74276.0,1.55,-1.29,-1.13,0,*71
1506344613.31,30338,16.56,74278.3,1.55,-1.25,-1.05,0,*75
1506344614.58,30339,16.56,74278.8,1.55,-1.13,-1.01,0,*75
1506344615.83,30340,16.56,74272.5,1.55,-1.17,-1.01,0,*7F
1506344617.09,30341,16.56,74276.0,1.55,-1.13,-0.93,0,*40
1506344618.35,30342,16.56,74274.3,1.55,-1.05,-0.89,0,*4F
1506344619.62,30343,16.56,74278.0,1.55,-1.13,-1.01,0,*78
1506344620.88,30344,16.56,74272.5,1.55,-1.13,-0.89,0,*4E
1506344622.12,30345,16.56,74278.3,1.55,-1.05,-0.81,0,*40
1506344623.36,30346,16.56,74278.5,1.55,-1.29,-1.13,0,*77
1506344624.59,30347,16.56,74278.3,1.57,-1.13,-0.97,0,*40
1506344625.81,30348,16.56,74278.5,1.57,-1.33,-1.09,0,*7B
1506344627.08,30349,16.56,74276.5,1.55,-1.47,-1.35,0,*74
1506344628.32,30350,16.56,74278.5,1.55,-1.47,-1.25,0,*7D
1506344629.57,30351,16.56,74276.5,1.55,-1.47,-1.29,0,*70
1506344630.81,30352,16.56,74276.5,1.55,-1.39,-1.25,0,*76
1506344632.05,30353,16.56,74276.5,1.55,-1.39,-1.25,0,*77
1506344633.3,30354,16.56,74278.5,1.55,-1.39,-1.25,0,*70
1506344634.55,30355,16.56,74276.8,1.55,-1.39,-1.17,0,*70
1506344635.76,30356,16.56,74278.3,1.57,-1.25,-1.01,0,*7B
1506344636.97,30357,16.56,74282.0,1.57,-1.25,-1.01,0,*7A
1506344638.2,30358,16.56,74274.0,1.57,-1.13,-0.97,0,*4E
1506344639.43,30359,16.56,74278.0,1.57,-1.13,-0.97,0,*4F
1506344640.66,30360,16.56,74280.0,1.57,-1.13,-0.97,0,*45
1506344641.92,30361,16.56,74274.0,1.59,-1.09,-0.97,0,*41
1506344643.15,30362,16.56,74278.3,1.57,-1.09,-0.89,0,*43
1506344644.37,30363,16.56,74272.8,1.57,-1.09,-0.97,0,*4D
1506344645.6,30364,16.56,74276.0,1.57,-1.09,-0.89,0,*45
1506344646.86,30365,16.56,74274.0,1.59,-1.01,-0.97,0,*4D
1506344648.12,30366,16.56,74276.5,1.59,-1.01,-0.97,0,*4E
1506344649.38,30367,16.56,74274.8,1.59,-0.89,-0.85,0,*7D
1506344650.64,30368,16.56,74278.3,1.59,-1.01,-0.97,0,*40
1506344651.86,30369,16.56,74276.8,1.59,-1.33,-1.33,0,*7F
1506344653.07,30370,16.56,74276.8,1.57,-1.59,-1.47,0,*76
1506344654.31,30371,16.56,74276.3,1.59,-1.35,-1.21,0,*73
1506344655.52,30372,16.56,74274.8,1.57,-1.33,-1.13,0,*79
1506344656.75,30373,16.56,74276.3,1.59,-1.33,-1.21,0,*77
1506344657.97,30374,16.56,74276.3,1.59,-1.33,-1.21,0,*70
1506344659.21,30375,16.56,74276.5,1.59,-1.43,-1.33,0,*75
1506344660.48,30376,16.56,74278.3,1.59,-1.43,-1.35,0,*70
1506344661.69,30377,16.56,74274.3,1.57,-1.25,-1.09,0,*70
1506344662.93,30378,16.56,74274.5,1.59,-1.43,-1.33,0,*78
1506344664.2,30379,16.56,74272.3,1.59,-1.47,-1.35,0,*7B
1506344665.42,30380,16.56,74274.5,1.57,-1.55,-1.35,0,*70
1506344666.63,30381,16.56,74272.5,1.57,-1.63,-1.43,0,*75
1506344667.87,30382,16.56,74272.8,1.57,-1.47,-1.35,0,*71
1506344669.09,30383,16.56,74278.8,1.57,-1.71,-1.43,0,*74
1506344670.28,30384,16.56,74278.5,1.57,-1.75,-1.71,0,*76
1506344671.5,30385,16.56,74272.0,1.55,-1.67,-1.51,0,*74
1506344672.71,30386,16.56,74276.5,1.55,-1.63,-1.63,0,*72
1506344673.93,30387,16.56,74278.0,1.57,-1.55,-1.43,0,*76
1506344675.15,30388,16.56,74276.8,1.55,-1.63,-1.67,0,*78
1506344676.37,30389,16.56,74272.8,1.55,-1.63,-1.67,0,*79
1506344677.61,30390,16.56,74274.3,1.55,-1.87,-1.75,0,*78
1506344678.83,30391,16.56,74276.0,1.55,-1.75,-1.67,0,*77
1506344680.08,30392,16.56,74276.8,1.53,-2.03,-1.87,0,*7E
1506344681.27,30393,16.56,74276.8,1.53,-1.75,-1.67,0,*73
1506344682.51,30394,16.56,74276.5,1.53,-1.91,-1.91,0,*77
1506344683.76,30395,16.56,74274.0,1.55,-1.87,-1.67,0,*7E
1506344685.01,30396,16.56,74272.8,1.51,-1.83,-1.79,0,*72
1506344686.25,30397,16.56,74272.3,1.51,-2.15,-2.07,0,*75
1506344687.49,30398,16.56,74272.0,1.49,-1.95,-1.87,0,*73
1506344688.71,30399,16.56,74276.8,1.49,-1.83,-1.59,0,*76
1506344689.89,30400,16.56,74276.0,1.49,-1.75,-1.59,0,*78
1506344691.16,30401,16.56,74274.8,1.51,-2.03,-1.91,0,*76
1506344692.38,30402,16.56,74278.8,1.49,-2.19,-2.11,0,*7C
1506344693.57,30403,16.56,74272.8,1.49,-2.19,-2.19,0,*75
1506344694.81,30404,16.56,74274.5,1.47,-2.23,-2.11,0,*7D
1506344696.08,30405,16.56,74276.0,1.47,-1.99,-1.83,0,*76
1506344697.35,30406,16.56,74274.5,1.47,-2.07,-1.95,0,*76
1506344698.59,30407,16.56,74276.0,1.47,-1.83,-1.75,0,*76
1506344699.87,30408,16.56,74276.5,1.47,-2.11,-2.07,0,*77
1506344701.09,30409,16.56,74278.8,1.47,-1.75,-1.71,0,*75
1506344702.31,30410,16.56,74278.5,1.47,-1.75,-1.71,0,*7D
1506344703.56,30411,16.56,74274.8,1.47,-1.87,-1.75,0,*75
1506344704.81,30412,16.56,74278.3,1.47,-1.83,-1.75,0,*72
1506344706.0,30413,16.56,74272.3,1.45,-1.75,-1.63,0,*7F
1506344707.22,30414,16.56,74276.5,1.45,-1.87,-1.79,0,*7E
1506344708.5,30415,16.56,74276.3,1.47,-1.99,-1.99,0,*7C
1506344709.76,30416,16.56,74276.0,1.45,-1.99,-1.99,0,*7D
1506344711.01,30417,16.56,74276.5,1.45,-2.11,-1.99,0,*7F
1506344712.25,30418,16.56,74276.5,1.47,-1.95,-1.75,0,*7F
1506344713.45,30419,16.56,74272.0,1.45,-1.79,-1.63,0,*79
1506344714.64,30420,16.56,74276.3,1.45,-1.75,-1.75,0,*78
1506344715.83,30421,16.56,74274.5,1.45,-1.79,-1.63,0,*72
1506344717.08,30422,16.56,74278.3,1.45,-1.99,-1.87,0,*75
1506344718.33,30423,16.56,74278.8,1.45,-2.03,-2.11,0,*78
1506344719.55,30424,16.56,74278.3,1.45,-1.87,-1.79,0,*7D
1506344720.74,30425,16.56,74278.8,1.45,-1.59,-1.51,0,*75
1506344721.96,30426,16.56,74276.5,1.43,-1.71,-1.59,0,*72
1506344723.2,30427,16.56,74276.3,1.43,-1.51,-1.47,0,*7E
1506344724.4,30428,16.56,74282.3,1.45,-1.71,-1.59,0,*7A
1506344725.59,30429,16.56,74278.0,1.39,-1.75,-1.67,0,*79
1506344726.82,30430,16.56,74276.0,1.43,-1.71,-1.79,0,*77
1506344728.02,30431,16.56,74278.8,1.45,-1.71,-1.59,0,*72
1506344729.21,30432,16.56,74276.3,1.45,-1.75,-1.63,0,*7C
1506344730.43,30433,16.56,74276.5,1.43,-1.71,-1.63,0,*7F
1506344731.65,30434,16.56,74282.3,1.43,-1.63,-1.51,0,*7A
1506344732.89,30435,16.56,74278.5,1.43,-1.51,-1.47,0,*7D
1506344734.1,30436,16.56,74278.0,1.43,-1.59,-1.63,0,*70
1506344735.32,30437,16.56,74278.8,1.43,-1.75,-1.75,0,*78
1506344736.56,30438,16.56,74276.3,1.43,-1.51,-1.47,0,*70
1506344737.83,30439,16.56,74276.8,1.43,-1.87,-1.87,0,*76
1506344739.07,30440,16.56,74274.8,1.43,-1.91,-1.79,0,*7E
1506344740.32,30441,16.56,74278.8,1.45,-1.99,-1.91,0,*77
1506344741.54,30442,16.56,74278.5,1.43,-1.63,-1.51,0,*7B
1506344742.76,30443,16.56,74280.5,1.39,-1.55,-1.43,0,*71
1506344744.0,30444,16.56,74278.3,1.43,-1.51,-1.47,0,*7B
1506344745.24,30445,16.56,74280.0,1.43,-1.51,-1.39,0,*73
1506344746.43,30446,16.56,74282.5,1.39,-1.63,-1.51,0,*72
1506344747.67,30447,16.56,74282.3,1.43,-1.51,-1.39,0,*71
1506344748.91,30448,16.56,74278.3,1.43,-1.51,-1.47,0,*77
1506344750.13,30449,16.56,74278.3,1.43,-1.63,-1.51,0,*70
1506344751.37,30450,16.56,74276.8,1.43,-1.51,-1.39,0,*77
1506344752.58,30451,16.56,74276.8,1.43,-1.51,-1.29,0,*77
1506344753.82,30452,16.56,74278.3,1.43,-1.59,-1.47,0,*74
1506344755.06,30453,16.56,74278.8,1.43,-1.59,-1.39,0,*7C
1506344756.28,30454,16.56,74280.0,1.45,-1.51,-1.39,0,*75
1506344757.49,30455,16.56,74282.3,1.45,-1.59,-1.39,0,*7C
1506344758.71,30456,16.56,74278.8,1.45,-1.63,-1.47,0,*7F
1506344759.93,30457,16.56,74280.0,1.43,-1.71,-1.51,0,*7C
1506344761.13,30458,16.56,74278.8,1.39,-1.79,-1.67,0,*73
1506344762.35,30459,16.56,74282.5,1.43,-1.63,-1.51,0,*71
1506344763.59,30460,16.56,74278.0,1.43,-1.51,-1.47,0,*7D
1506344764.8,30461,16.56,74276.5,1.39,-1.51,-1.39,0,*78
1506344766.05,30462,16.56,74278.8,1.43,-1.39,-1.25,0,*75
1506344767.25,30463,16.56,74276.0,1.39,-1.33,-1.21,0,*77
1506344768.52,30464,16.56,74278.3,1.43,-1.47,-1.35,0,*7B
1506344769.75,30465,16.56,74278.3,1.45,-1.39,-1.29,0,*78
1506344770.97,30466,16.56,74278.3,1.47,-1.33,-1.21,0,*7B
1506344772.22,30467,16.56,74278.8,1.45,-1.47,-1.47,0,*7B
1506344773.46,30468,16.56,74280.0,1.47,-1.55,-1.47,0,*75
1506344774.68,30469,16.56,74276.8,1.45,-1.51,-1.39,0,*7B
1506344775.9,30470,16.56,74278.8,1.45,-1.59,-1.47,0,*72
1506344777.11,30471,16.56,74278.3,1.45,-1.51,-1.47,0,*7B
1506344778.33,30472,16.56,74282.8,1.45,-1.59,-1.39,0,*79
1506344779.54,30473,16.56,74280.0,1.45,-1.51,-1.39,0,*70
1506344780.76,30474,16.56,74282.5,1.47,-1.33,-1.25,0,*7C
1506344782.04,30475,16.56,74280.5,1.47,-1.43,-1.43,0,*7A
1506344783.26,30476,16.56,74280.8,1.45,-1.39,-1.29,0,*7A
1506344784.48,30477,16.56,74278.5,1.47,-1.25,-1.21,0,*7C
1506344785.72,30478,16.56,74276.8,1.47,-1.21,-1.13,0,*76
1506344786.98,30479,16.56,74282.8,1.47,-1.09,-0.97,0,*40
1506344788.24,30480,16.56,74282.0,1.47,-1.09,-0.97,0,*46
1506344789.47,30481,16.56,74282.0,1.49,-1.09,-0.97,0,*49
1506344790.7,30482,16.56,74276.8,1.49,-1.09,-0.97,0,*4A
1506344791.91,30483,16.56,74280.0,1.49,-1.25,-1.13,0,*78
1506344793.13,30484,16.56,74282.5,1.49,-1.25,-1.09,0,*74
1506344794.37,30485,16.56,74280.5,1.51,-1.17,-0.97,0,*4B
1506344795.63,30486,16.56,74282.3,1.51,-1.05,-0.97,0,*4B
1506344796.86,30487,16.56,74282.8,1.49,-1.09,-0.89,0,*40
1506344798.12,30488,16.56,74282.3,1.51,-1.05,-0.85,0,*46
1506344799.39,30489,16.56,74278.0,1.51,-1.05,-0.97,0,*44
1506344800.61,30490,16.56,74282.3,1.53,-1.25,-1.05,0,*76
1506344801.83,30491,16.56,74282.5,1.53,-1.17,-1.05,0,*76
1506344803.04,30492,16.56,74280.8,1.53,-1.01,-0.81,0,*4F
1506344804.3,30493,16.56,74282.0,1.55,-1.13,-0.89,0,*43
1506344805.55,30494,16.56,74278.5,1.55,-1.25,-1.05,0,*74
1506344806.76,30495,16.56,74276.0,1.53,-1.35,-1.25,0,*70
1506344807.97,30496,16.56,74282.5,1.53,-1.29,-1.13,0,*7B
1506344809.21,30497,16.56,74282.5,1.53,-1.13,-0.93,0,*4A
1506344810.42,30498,16.56,74276.5,1.53,-0.93,-0.73,0,*72
1506344811.65,30499,16.56,74280.8,1.55,-0.93,-0.73,0,*75
1506344812.91,30500,16.56,74276.5,1.55,-1.05,-0.89,0,*4F
1506344814.16,30501,16.56,74278.5,1.55,-1.17,-1.01,0,*7C
1506344815.43,30502,16.56,74278.8,1.55,-1.05,-0.93,0,*46
1506344816.67,30503,16.56,74276.5,1.55,-1.01,-0.81,0,*40
1506344817.93,30504,16.56,74280.5,1.55,-1.13,-0.93,0,*47
1506344819.19,30505,16.56,74280.0,1.55,-1.13,-0.89,0,*4D
1506344820.43,30506,16.56,74282.3,1.55,-1.01,-0.77,0,*4C
1506344821.68,30507,16.56,74282.3,1.55,-1.29,-1.05,0,*73
1506344822.93,30508,16.56,74282.3,1.55,-1.29,-1.05,0,*7C
1506344824.14,30509,16.56,74278.3,1.53,-1.17,-0.93,0,*48
1506344825.4,30510,16.56,74278.0,1.55,-1.13,-0.89,0,*49
1506344826.64,30511,16.56,74280.8,1.55,-1.29,-1.01,0,*70
1506344827.85,30512,16.56,74280.5,1.57,-1.25,-1.13,0,*7E
1506344829.06,30513,16.56,74280.3,1.57,-1.25,-1.09,0,*74
1506344830.29,30514,16.56,74280.5,1.57,-1.13,-0.97,0,*40
1506344831.49,30515,16.56,74280.8,1.57,-1.33,-1.21,0,*7F
1506344832.72,30516,16.56,74280.0,1.57,-1.35,-1.13,0,*7B
1506344833.96,30517,16.56,74278.3,1.59,-1.43,-1.33,0,*77
1506344835.17,30518,16.56,74282.3,1.57,-1.35,-1.21,0,*74
1506344836.39,30519,16.56,74280.8,1.57,-1.25,-1.01,0,*76
1506344837.63,30520,16.56,74280.5,1.59,-1.33,-1.13,0,*76
1506344838.86,30521,16.56,74280.3,1.57,-1.13,-0.97,0,*46
1506344840.06,30522,16.56,74276.8,1.57,-1.25,-0.97,0,*40
1506344841.28,30523,16.56,74278.3,1.57,-1.33,-1.01,0,*78
1506344842.48,30524,16.56,74278.0,1.57,-1.25,-0.89,0,*49
1506344843.68,30525,16.56,74278.5,1.57,-1.25,-0.97,0,*47
1506344844.89,30526,16.56,74278.3,1.57,-1.25,-0.97,0,*44
1506344846.12,30527,16.56,74280.5,1.57,-1.13,-0.85,0,*43
1506344847.35,30528,16.56,74276.5,1.57,-1.09,-0.85,0,*47
1506344848.59,30529,16.56,74276.5,1.59,-1.09,-0.77,0,*45
1506344849.82,30530,16.56,74278.0,1.59,-1.21,-0.97,0,*49
1506344851.06,30531,16.56,74278.0,1.59,-1.25,-1.09,0,*7A
1506344852.31,30532,16.56,74278.5,1.59,-1.33,-1.09,0,*7E
1506344853.55,30533,16.56,74280.5,1.59,-1.33,-1.01,0,*77
1506344854.81,30534,16.56,74278.8,1.59,-1.01,-0.89,0,*40
1506344856.05,30535,16.56,74276.5,1.59,-1.01,-0.77,0,*40
1506344857.27,30536,16.56,74278.5,1.61,-0.97,-0.73,0,*72
1506344858.48,30537,16.56,74278.8,1.61,-0.97,-0.73,0,*73
1506344859.72,30538,16.56,74278.8,1.59,-0.89,-0.77,0,*7C
1506344860.95,30539,16.56,74282.3,1.59,-0.89,-0.73,0,*79
1506344862.19,30540,16.56,74276.3,1.59,-0.89,-0.73,0,*77
1506344863.43,30541,16.56,74278.8,1.59,-1.09,-0.77,0,*4B
1506344864.64,30542,16.56,74278.0,1.61,-0.93,-0.73,0,*75
1506344865.82,30543,16.56,74278.0,1.61,-0.81,-0.61,0,*74
1506344866.99,30544,16.56,74278.0,1.65,-0.73,-0.65,0,*7E
1506344868.17,30545,16.56,74276.3,1.65,-0.77,-0.53,0,*7E
1506344869.37,30546,16.56,74278.5,1.65,-0.89,-0.65,0,*79
1506344870.56,30547,16.56,74278.8,1.65,-0.89,-0.65,0,*78
1506344871.78,30548,16.56,74276.3,1.61,-1.21,-1.09,0,*7B
1506344872.99,30549,16.56,74276.5,1.65,-1.01,-0.77,0,*44
1506344874.2,30550,16.56,74278.3,1.65,-1.01,-0.81,0,*45
1506344875.43,30551,16.56,74282.8,1.65,-1.13,-1.01,0,*7E
1506344876.64,30552,16.56,74274.5,1.65,-1.17,-1.01,0,*79
1506344877.85,30553,16.56,74276.3,1.65,-1.25,-1.01,0,*79
1506344879.08,30554,16.56,74280.8,1.65,-1.13,-1.01,0,*7B
1506344880.32,30555,16.56,74278.3,1.67,-1.01,-0.81,0,*42
1506344881.57,30556,16.56,74278.8,1.67,-1.01,-0.89,0,*49
1506344882.79,30557,16.56,74278.3,1.67,-0.93,-0.81,0,*7A
1506344884.0,30558,16.56,74278.0,1.69,-0.89,-0.73,0,*7D
1506344885.22,30559,16.56,74276.5,1.67,-0.93,-0.69,0,*72
1506344886.48,30560,16.56,74276.5,1.67,-1.05,-0.89,0,*48
1506344887.72,30561,16.56,74276.0,1.67,-1.01,-0.77,0,*4C
1506344888.93,30562,16.56,74276.5,1.69,-0.97,-0.77,0,*7F
1506344890.13,30563,16.56,74276.5,1.69,-0.89,-0.65,0,*72
1506344891.33,30564,16.56,74278.0,1.69,-0.89,-0.65,0,*75
1506344892.58,30565,16.56,74278.3,1.67,-1.13,-0.93,0,*41
1506344893.84,30566,16.56,74278.8,1.67,-1.05,-0.89,0,*4E
1506344895.07,30567,16.56,74278.5,1.67,-1.01,-0.81,0,*43
1506344896.3,30568,16.56,74276.8,1.69,-1.09,-0.85,0,*4E
1506344897.53,30569,16.56,74276.5,1.69,-1.01,-0.85,0,*47
1506344898.76,30570,16.56,74280.0,1.69,-1.13,-0.97,0,*4F
1506344899.99,30571,16.56,74276.5,1.67,-1.25,-1.13,0,*78
1506344901.22,30572,16.56,74278.8,1.69,-1.13,-0.89,0,*42
1506344902.43,30573,16.56,74276.3,1.69,-0.97,-0.77,0,*7F
1506344903.67,30574,16.56,74278.8,1.67,-1.01,-0.81,0,*41
1506344904.88,30575,16.56,74278.3,1.69,-1.01,-0.77,0,*47
1506344906.09,30576,16.56,74280.5,1.69,-0.97,-0.77,0,*7A
1506344907.29,30577,16.56,74276.3,1.69,-0.85,-0.73,0,*7C
1506344908.47,30578,16.56,74276.5,1.69,-0.77,-0.65,0,*79
1506344909.68,30579,16.56,74278.0,1.69,-0.85,-0.73,0,*72
1506344910.88,30580,16.56,74276.0,1.69,-0.85,-0.65,0,*73
1506344912.08,30581,16.56,74276.8,1.71,-0.77,-0.57,0,*77
1506344913.29,30582,16.56,74278.5,1.73,-0.73,-0.53,0,*76
1506344914.52,30583,16.56,74282.0,1.71,-0.89,-0.73,0,*72
1506344915.78,30584,16.56,74280.5,1.71,-1.09,-0.85,0,*45
1506344917.03,30585,16.56,74276.0,1.71,-1.09,-0.89,0,*48